Zurück zum Katalog

ONEWEB-0281

AktivKommunikationPO
NORAD 48999·PAYLOAD·🇬🇧 United Kingdom

Gestartet Jul 1, 2021 von Vostochny Cosmodrome

Loading…

Nächste Überflüge (nächste 24 Stunden)

TLE

AktuellSource: CelesTrak SupGP

Epoche: Sep 14, 2026, 11:02 UTC

1 48999C 21060AJ  26257.45987685 -.00002564  00000+0 -67164-2 0  2573
2 48999  87.9150 211.0476 0002156  83.6376  16.4909 13.16594990    16

Verfolge ONEWEB-0281 in Echtzeit mit AllMySat

Download on the App Store